ONEWEB-0617 (55158 NORAD) Tracking and Keplerian Element Data

This shows tracking and keplerian element data for the satellite.

Feedback or suggestion? Click here.




ElementValue
Catalog55158
NameONEWEB-0617
Epoch Orbit75
Epoch Day14.25001157
Epoch Year2023
RAAN283.9972
Inclination86.513
Eccentricity0.0008007
Argument of Perigee201.4099
Mean Anonmoly44.8172
Mean Motion14.90423913
Decay Rate9.839E-05
L11 55158U 23004U 23014.25001157 .00009839 00000+0 10063-2 0 9994
L22 55158 86.5130 283.9972 0008007 201.4099 44.8172 14.90423913 753



Live tracking and technical data element details for ONEWEB-0617 (NORAD 55158). ONEWEB-0617 can be tracked NOW for your location showing map with azimuth and elevation plus other details from your city location.







IsCatalogInMostPopularTable: catalog: 55158, numindb: 3
Update: records affected: 1



GetName: 55158 ONEWEB-0617

Hit Count: updated at: Tue, 07 Feb 2023 15:25:20 GMT